Race Results for
Watsonville Criterium
Watsonville, CA
(Event Information)
View By:
Criterium on 07/17/2010

Note: Ranking points are NOT upgrade points. An explanation of ranking points can be found here.


Men - Cat1/2/3 - Master - 35-99

 Place Points NameCity, StateTime USAC #BibTeam
1190.07Dennis Hopp   San Jose, CA00:00.0 54895  406 SJBC
2202.64Scott Fonseca   Fair Oaks, CA00:00.0 204715  414 Zenn Racing Team
3215.22Nick Theobald   Burlingame, CA00:00.0 35297  409 SAFEWAY/Bicycles Plus/PureRed
4227.79Brian Heneghan   San Jose, CA00:00.0 63508  405 Los Gatos
5240.37Joel Robertson   San Leandro, CA00:00.0 220316  417 Webcor/Alto Velo
6252.94Robert MacNeill   San Carlos, CA00:00.0 199599  420 Webcor/Alto Velo
7265.51Chris Wire   Saratoga, CA00:00.0 152176  410 SJBC
8278.09Jonathan Eropkin   Fresno, CA00:00.0 197844  416 SAFEWAY/Bicycles Plus/PureRed
9290.66Keith DeFiebre   Prunedale, CA00:00.0 9046  413 California Giant Cycling
10303.24David Avila   Emerald Hills, CA00:00.0 55625  415 One Team Racing
11315.81Daryl Spano   Fremont, CA00:00.0 146243  408 SJBC
12328.38Aaron Hunter   Santa Cruz, CA00:00.0 215194  418 Kinetic Cycles/GBI
13340.96Mike Slayden (1 - Cat3)   Clovis, CA00:00.0 297468  407 Vapor Racing
14353.53Tim Loper (1 - Cat2)   Fresno, CA00:00.0 212030  411 Vapor Racing
15366.11Chris Ott   San Jose, CA00:00.0 26920  412 Zenn Racing Team
16378.68David Allen   Capitola, CA00:00.0 1399  401 SCCCC
17391.25James Coats   Campbell, CA00:00.0 7200  403 california giant berry farms/s
DNSSantiago Bolon   San Jose, CA00:00.0 195384  402 Christian Cycling - Hammer Nut
DNSJeremy Dixon   Lompoc00:00.0 61773  404 Herbalife-LaGrange
DNPHarpartap Singh (Cat2)   Stockton, CA00:00.0 129097  419 Williams Cycling

Men - Cat1/2/3 - Master - 45-99

 Place Points NameCity, StateTime USAC #BibTeam
1235.94Steven Gile   Salinas, CA00:00.0 98978  854 VOS Racing
2250.67Edward Goulet   Felton, CA00:00.0 48541  870 Omatt
3265.39Duane Bolt   Pleasanton, CA00:00.0 47096  851 Christian Cycling-Hammer Nutri
4280.12Gregory Pike   Salinas, CA00:00.0 158350  859 VOS Racing
5294.85Jeff Poulsen   Arnold, CA00:00.0 28533  865 SAFEWAY/Bicycles Plus/PureRed
6309.57Jeremy Wire   Menlo Park, CA00:00.0 285056  863 SJBC
7324.30Andrew Nevitt   Saratoga, CA00:00.0 47463  868 SJBC
8339.02Courtney Grossman   Salinas, CA00:00.0 86795  866 VOS Racing
9353.75Rick Martyn   Pleasant Hill, CA00:00.0 204699  857 VOS Racing
10368.48Ron Callison   Danville, CA00:00.0 130870  852 Christian Cycling-Hammer Nutri
11383.20Paul DeBacker   Mountain View, CA00:00.0 168436  869 Webcor/Alto Velo
12397.93Eric Saltzman   Menlo Park, CA00:00.0 46157  861 Morgan Stanley Smith Barney/Sp
13412.66Leon Pitts   Carmel, CA00:00.0 213367  860 VOS Racing
DNSWilliam Lico   San Jose00:00.0 134972  856 Christian cycling-Hammer nutri
DNSSteven Mielich   San Jose, CA00:00.0 136178  858 SJBC
DNSTed Toribio   Elk Grove00:00.0 88963  862 Christian Cycling - Hammer Nut
DNPKevin Farrauto   Livermore, CA00:00.0 662  853 Christian Cycling/Hammer Nutri
DNPJohn Houston (Cat3)   Pleasanton, CA00:00.0 255975  855 Christian Cycling-Hammer Nutri
DNPMartin Wolff   Carmel, CA00:00.0 203646  864 VOS Racing
DNPGeorge Meilahn   Antioch, CA00:00.0 166581  867 Christian Cycling-Hammer Nutri

Men - Cat 5

 Place Points NameCity, StateTime USAC #BibTeam
1493.58Jonathan Krier-tran   San Jose, CA00:00.0 310223  765 sjbc
2Igor STEPANOV   00:00.0  769 
3502.35Stephen Crowley   Salinas, CA00:00.0 285929  756 VOS Racing
4506.73morgan raines   Santa Cruz, CA00:00.0 304464  775 RR Velo
5511.11Robert Koch   Santa Margarita, CA00:00.0 166865  764 GFIS
6515.49Jim Atkinson   San Jose, CA00:00.0 305002  778 Unattached
7519.88darren ellenburg   Morgan Hill, CA00:00.0 309043  757 SJBC
8Adam HAVERSIDAL   00:00.0  779 
9528.64JASON NEU   Los Gatos, CA00:00.0 305688  766 SJBC
10533.02Oscar Garcia   San Francisco, CA00:00.0 307898  758 
11537.41Christopher Leibman   Palo Alto, CA00:00.0 314198  782 Unattached
12541.79Brad Cannella   Cambria, CA00:00.0 92638  752 SLO NEXUS
13Adam PANLOWSKI   00:00.0  774 Walthour Racing
14Max BURKHARDT   00:00.0  780 
15Lance SLAUGHTER   00:00.0  783 
16Ben HORKEN   00:00.0  772 
17563.70Ron Rawson   Orinda, CA00:00.0 306491  767 
18568.09Mike Creamer   Concord, CA00:00.0 311752  755 
19572.47Nicholas Sosa   Santa Cruz, CA00:00.0 305618  781 Strong Arm
20David COTTER   00:00.0  754 
21Tim HUANG   00:00.0  761 
22Doug SWARTHOUT   00:00.0  773 
23590.00Jeff Kesner   Redwood City, CA00:00.0 177253  763 SJBC
DNSNathan Williams   Sanjose, CA00:00.0 307180  770 SJBC
DNPTony Cannizzo   Goleta, CA00:00.0 316810  753 
DNPJacob Gerhardt   Atascadero, CA00:00.0 305079  759 
DNPJim Goodwin   Modesto, CA00:00.0 303986  760 Fun Sport Bikes Cycling Team
DNPJustin Ishida   Berkeley, CA00:00.0 274183  762 
DNPJuan ROSAS   00:00.0  768 
DNPEliseo ZEPEDA   00:00.0  771 
DNPJordan VANDERSTOEP   00:00.0  776 
DNPErnie Tong   Monterey, CA00:00.0 296434  777 Velo Club Monterey

Men - Cat 4

 Place Points NameCity, StateTime USAC #BibTeam
1353.55Cameron Barnes   Santa Cruz, CA00:00.0 319652  685 Unattached
2360.70Garrett Hankins   Carmichael, CA00:00.0 298571  642 Team City
3367.86Jeff Linder   Sunnyvale, CA00:00.0 307653  648 
4375.01Marco Carvajal   San Francisco, CA00:00.0 305357  664 
5382.16Mitch Bramlett   Santa Cruz, CA00:00.0 4611  661 Third Pillar
6389.32Jeff Byrd   Salinas, CA00:00.0 268757  663 VOS
7396.47Jesse Baliscao   Aptos, CA00:00.0 271991  632 One Team Racing
8403.63Ryan Johnson   San Francisco, CA00:00.0 288483  645 Team Roaring Mouse
9410.78Jeffrey Buscheck   Pleasanton, CA00:00.0 283386  662 Christian Cycling-Hammer Nutri
10417.93Ben Earl   San Luis Obispo, CA00:00.0 273452  665 SLO Nexus - Gym One
11425.09Benjamin Holland   Castro Valley, CA00:00.0 258722  684 Christian Cycling-Hammer Nutri
12432.24NICO CERNA   Salinas, CA00:00.0 242278  687 VOS Racing
13439.39Brian McLean   Los Gatos, CA00:00.0 278289  649 Los Gatos
14446.55Steve Stewart   Los Gatos, CA00:00.0 34158  656 Los Gatos
15453.70Steven Woo   Los Altos, CA00:00.0 38840  659 Third Pillar
16460.85Serge Plasschaert   San Jose, CA00:00.0 195521  678 Christian Cycling-Hammer Nutri
17468.01Joseph Buongiorno   Ladera Ranch, CA00:00.0 270004  682 SLO Nexus
18475.16Steven Sperling   Grand Junction, CO00:00.0 204146  683 
19482.31Daniel Stevens   Cayucos Ca00:00.0 304754  655 
20489.47Paul Yun   San Luis Obispo, CA00:00.0 288635  660 SLO Nexus- Gym one
21496.62C Jeffrey Bramlett   Palo Alto, CA00:00.0 202272  686 Third Pillar
22503.78Joshua Kessler   San Luis Obispo, CA00:00.0 304814  646 SLO Nexus - Gym One
23510.93Amos Fishbein   Pismo Beach, CA00:00.0 300035  667 Central Coast Tire
24518.08Daniel Hertel   Arroyo Grande, CA00:00.0 300030  643 Central Coast Tire CCT
25525.24Mateo Ortega   Brisbane, CA00:00.0 255427  677 Team Roaring Mouse
26532.39Jim Feliz   San Luis Obispo, CA00:00.0 272672  666 
27539.54Shane Huntoon   Livermore, CA00:00.0 17200  644 Christian Cycling-Hammer Nutri
28546.70Eamonn Gormley   Sunnyvale, CA00:00.0 282501  669 Los Gatos
29553.85frederic taylor   Pacificgrove, CA00:00.0 310416  688 Unattached
30561.00William Sorg   Bloomington, IN00:00.0 272073  680 Ghost Tree Racing
31568.16Russ Freeman   Clovis, CA00:00.0 129467  668 Central Valley Cycling
DNSColin Taylor   Oakland, CA00:00.0 180332  657 
DNSWillie MYERS   00:00.0  676 Team City
DNSLance Slaughter   Fresno, CA00:00.0 238392  679 Central Valley Cycling
DNPJeremiah Kille   Aptos, CA00:00.0 304508  647 taleo racing
DNPChristopher White   Salinas, CA00:00.0 297747  658 
DNPRyan McMillen   Seaside, CA00:00.0 221354  681 Ghost Tree Racing

Men - Cat 3

 Place Points NameCity, StateTime USAC #BibTeam
1264.65Robbie Franscioni   Salinas, CA00:00.0 298805  568 California Giant Cycling
2278.77Matt Paliughi   Fresno, CA00:00.0 300085  564 Sierra Pacific Racing
3292.90Patrick Thomas   Aptos, CA00:00.0 294849  556 
4307.02Martin Acosta   East Palo Alto, CA00:00.0 291277  560 Alto Velo Racing Club
5321.15Derek Johnson   San Luis Obispo, CA00:00.0 273099  565 Platinum Performance Cycling T
6335.27Matt Lupello   Murrieta, CA00:00.0 278478  554 NA
7349.39Luciano Berry   Sunol, CA00:00.0 192658  551 SJBC
8363.52Abe Rotstein   Watsonville, CA00:00.0 286497  555 Team Bicycle Trip / Symantec
9377.64Scott Cole   Oakland, CA00:00.0 199614  553 Third Pillar
10391.77Johnny Mullane   Watsonville, CA00:00.0 281204  559 Davis Bike Club Race Team
11405.89Robert Orcutt   Scotts Valley, CA00:00.0 269340  561 Webcor/Alto Velo
12420.01James Ryan   San Jose, CA00:00.0 163902  567 Los Gatos
13434.14Stone Beck   Fresno, CA00:00.0 219237  562 Stevens Bicycle Racing
14448.26Geoffrey Davis   San Luis Obispo, CA00:00.0 205688  563 ArtsCyclery.com/Wild Horse Win
15462.39George Meilahn   Antioch, CA00:00.0 166581  558 Christian Cycling-Hammer Nutri
DNPRon Callison   Danville, CA00:00.0 130870  552 Christian Cycling-Hammer Nutri
DNPKimberly White   Grand Junction, CO00:00.0 209678  557 Dolce Vita Cycling
DNPMaurice Monge   San Jose, CA00:00.0 257119  566 SJBC

Men - Pro/Cat 1/2

 Place Points NameCity, StateTime USAC #BibTeam
1136.82Rand Miller (1 - Cat1)   San Francisco, CA00:00.0 182990  187 Webcor/Alto Velo
2145.04Steve Reaney   San Jose, CA00:00.0 133288  172 California Giant Berry Farms/S
3153.25Jared Barrilleaux   Petaluma, CA00:00.0 248033  161 California Giant Berry Farms/S
4161.46Daniel Holloway   Morgan Hill, CA00:00.0 181725  188 UCI CT: Bissell Pro Cycling T
5169.68Erick Pierce   Oakland, CA00:00.0 209459  171 Los Gatos
6177.89Frank Spiteri   San Mateo, CA00:00.0 236118  175 Peninsula Velo/Pomodoro
7186.10Robert Newman   Los Gatos, CA00:00.0 53327  193 Unattached
8194.32Osvaldo Olmos (2 - Cat1)   San Luis Obispo, CA00:00.0 172541  169 California Giant Berry Farms/S
9202.53Justin Fraga   San Francisco, CA00:00.0 145583  163 Webcor/Alto Velo
10210.74Sean Smith   Oakland, CA00:00.0 204018  185 Squadra Ovest Cycling
11218.96Julian Martinez   Santa Monica, CA00:00.0 214569  164 California Giant Berry Farms/S
12227.17Robert Skinner   San Jose, CA00:00.0 255408  180 TBS Racing Team
13235.38Doran Mori   Oakland, CA00:00.0 196267  186 TEAM CLIF BAR Cycling
14243.60Darren Basso   Belmont, CA00:00.0 130973  189 American Lung Association Cycl
15251.81Brandon Trafton   Sacramento, CA00:00.0 240033  177 California Giant Berry Farms/S
16260.02Samuel Pickman   San Jose, CA00:00.0 133433  170 California Giant Berry Farms/S
17268.24James Mattis   Mountain View, CA00:00.0 127344  166 California Giant Berry Farms/S
DNPJeremy Dixon   Lompoc00:00.0 61773  162 Herbalife-LaGrange
DNPJustin Lucke   Redwood City, CA00:00.0 21760  165 Los Gatos
DNPKeith Miller   Los Gatos, CA00:00.0 53753  167 California Giant Berry Farms/S
DNPThomas Novikoff (Cat2)   San Jose, CA00:00.0 141331  168 Webcor/Alto Velo
DNPMarcus Smith   Pleasanton, CA00:00.0 209193  173 Team Specialized Racing Junior
DNPDarryl Smith   Pleasanton, CA00:00.0 33092  174 Christian Cycling - Hammer Nut
DNPNils Tikkanen   Santa Cruz, CA00:00.0 198331  176 Team Bicycle Trip/Symantec
DNPTyler Wertenbruch   Los Osos, CA00:00.0 155433  178 SLO Nexus-Gym One
DNPPaul Kronser   San Luis Obipso, CA00:00.0 180954  179 Unattached
DNPJoel Robertson   San Leandro, CA00:00.0 220316  181 Webcor/Alto Velo
DNPRobert MacNeill   San Carlos, CA00:00.0 199599  182 Webcor/Alto Velo
DNPJesse Chebot   Berkeley, CA00:00.0 209391  183 Third Pillar
DNPGraham Simpson   Carmel Valley, CA00:00.0 65800  190 Webcor/Alto Velo
DNPChris Ott   San Jose, CA00:00.0 26920  191 Zenn Racing Team
DNPTim Granshaw (Cat1)   Redwood City, CA00:00.0 55803  192 Webcor/Alto Velo

Women - Cat1/2/3/4

 Place Points NameCity, StateTime USAC #BibTeam
1273.81Mary Elizabeth Maroon   Sacramento, CA00:00.0 219555  452 Touchstone Climbing
2285.98Kimberly White   Grand Junction, CO00:00.0 209678  451 Dolce Vita Cycling
3298.15Ryan Hostetter   San Luis Obispo, CA00:00.0 191767  453 Metromint Cycling
4310.32Peggy LeGrand   Ladson, SC00:00.0 272836  455 Unattached
5322.49Elis Bradshaw   Oakland, CA00:00.0 208125  454 Touchstone Climbing
6334.66Lori Nock (1 - Cat3)   Los Altos, CA00:00.0 178556  404 

Report missing or incorrect license numbers

Volkswagen
ShimanoSpySierra NevadaBonk BreakerUSACDF
UCI USA Cycling is the official governing body for all disciplines of competitive cycling in the United States. The 501c3, membership-based organization aims both to achieve sustained success in international cycling competition and to grow competitive cycling in America while delivering an exceptional customer experience.
View Children's Online Privacy Protection Policy
US Olympic Committee